Content
SEND FEEDBACK

Daily
Averages
Monthly
Summary
Malaysia

KUCHING, MALAYSIA


Home > Asia > Malaysia
Elevation: 89 feet     Latitude: 01 29N     Longitude: 110 20E

WEATHER
 
SELECT A DAY
Number of Records: 278,405;   Date Range: 8/9/96 - 10/21/14
 
SHARE

PRINT THIS DATA

[ ← Previous Day ]
WEATHER ALMANAC - JUNE 26, 2013
[ Next Day → ]
[ °C ]   °F
We're sorry. There is no daily almanac available for Kuching, Malaysia on June 26, 2013.
WEATHER BY HOUR - JUNE 26, 2013
[ °C ]   °F
Local TimeTemperatureDewpointHumidityBarometerVisibilityWind DirectionWind SpeedGust SpeedPrecipitationEventsConditions
12:30 AM78.8 °F77.0 °F94 %29.89 in3.7 miSSW (200°)3.5 mphMostly Cloudy
1:00 AM78.8 °F75.2 °F89 %29.89 in3.7 miSSW (200°)2.3 mphMostly Cloudy
1:30 AM78.8 °F75.2 °F89 %29.89 in3.7 miSW (220°)2.3 mphMostly Cloudy
2:00 AM79.0 °F76.0 °F86 %29.88 in4.0 miSSW (210°)2.3 mphHaze
2:00 AM78.8 °F75.2 °F89 %29.86 in3.7 miSSW (210°)2.3 mphMostly Cloudy
2:30 AM78.8 °F75.2 °F89 %29.86 in3.7 miSW (230°)2.3 mphMostly Cloudy
3:00 AM78.8 °F75.2 °F89 %29.86 in3.7 miSW (230°)3.5 mphMostly Cloudy
3:30 AM78.8 °F75.2 °F89 %29.86 in5.6 miWSW (250°)1.2 mphMostly Cloudy
4:00 AM78.8 °F75.2 °F89 %29.86 in5.6 miWest (280°)2.3 mphMostly Cloudy
4:30 AM78.8 °F75.2 °F89 %29.86 in5.6 miSW (230°)2.3 mphMostly Cloudy
5:00 AM78.0 °F76.0 °F91 %29.86 in6.0 miENE (60°)2.3 mphHaze
5:00 AM77.0 °F75.2 °F94 %29.86 in5.6 miENE (60°)2.3 mphMostly Cloudy
5:30 AM77.0 °F75.2 °F94 %29.86 in5.6 miESE (110°)2.3 mphMostly Cloudy
6:00 AM77.0 °F75.2 °F94 %29.86 in5.6 miEast (90°)3.5 mphMostly Cloudy
6:30 AM77.0 °F75.2 °F94 %29.86 in4.3 miSE (130°)2.3 mphMostly Cloudy
7:00 AM77.0 °F75.2 °F94 %29.86 in5.0 miESE (110°)3.5 mphMostly Cloudy
7:30 AM78.8 °F75.2 °F89 %29.89 in5.0 miSSE (160°)2.3 mphMostly Cloudy
8:00 AM80.0 °F76.0 °F86 %29.90 in5.0 miSE (130°)1.2 mphHaze
8:00 AM78.8 °F77.0 °F94 %29.89 in5.0 miSE (130°)1.2 mphMostly Cloudy
8:30 AM80.6 °F77.0 °F89 %29.89 in5.0 miSSW (210°)2.3 mphMostly Cloudy
9:00 AM82.4 °F77.0 °F84 %29.89 in5.0 miSouth (180°)4.6 mphMostly Cloudy
9:30 AM82.4 °F77.0 °F84 %29.89 in5.0 miSSE (160°)4.6 mphMostly Cloudy
10:00 AM84.2 °F77.0 °F79 %29.89 in4.3 miSE (130°)4.6 mphMostly Cloudy
10:30 AM86.0 °F75.2 °F70 %29.89 in5.0 miSE (130°)6.9 mphMostly Cloudy
11:00 AM88.0 °F75.0 °F58 %29.90 in5.0 miSSE (160°)6.9 mphHaze
11:00 AM87.8 °F75.2 °F66 %29.89 in5.0 miSSE (160°)6.9 mphMostly Cloudy
11:30 AM87.8 °F75.2 °F66 %29.89 in5.0 miSSE (160°)3.5 mphMostly Cloudy
12:00 PM89.6 °F75.2 °F62 %29.86 in5.0 miSouth (170°)3.5 mphMostly Cloudy
12:30 PM89.6 °F75.2 °F62 %29.86 in5.0 miSouth (170°)3.5 mphMostly Cloudy
1:00 PM91.4 °F75.2 °F59 %29.83 in5.0 miSE (130°)3.5 mphMostly Cloudy
1:30 PM77.0 °F73.4 °F89 %29.86 in0.5 miSSE (160°)18.4 mphRainHeavy Rain Showers
2:00 PM82.0 °F76.0 °F76 %29.84 in2.0 miWSW (250°)4.6 mphRain-ThunderstormThunderstorms and Rain
2:00 PM82.4 °F75.2 °F79 %29.83 in2.5 miWSW (250°)4.6 mphRain-ThunderstormLight Thunderstorms and Rain
2:30 PM78.8 °F73.4 °F83 %29.83 in3.7 miWNW (290°)16.1 mphRain-ThunderstormLight Thunderstorms and Rain
3:00 PM77.0 °F73.4 °F89 %29.83 in3.7 miWNW (290°)8.1 mphRain-ThunderstormLight Thunderstorms and Rain
3:30 PM77.0 °F73.4 °F89 %29.83 in1.9 miNNE (30°)6.9 mphRain-ThunderstormThunderstorms and Rain
4:00 PM77.0 °F75.2 °F94 %29.83 in3.7 miNNE (20°)5.8 mphRainLight Rain
4:30 PM77.0 °F75.2 °F94 %29.83 in5.0 miSE (140°)3.5 mphRainLight Rain
5:00 PM77.0 °F74.0 °F87 %29.85 in5.0 miWSW (240°)5.8 mphRainLight Rain
5:00 PM77.0 °F73.4 °F89 %29.83 in5.0 miWSW (240°)5.8 mphRainLight Rain
5:30 PM77.0 °F75.2 °F94 %29.83 in6.2 miWNW (290°)5.8 mphMostly Cloudy
6:00 PM77.0 °F73.4 °F89 %29.83 in6.2 miWNW (290°)4.6 mphMostly Cloudy
6:30 PM77.0 °F73.4 °F89 %29.83 in6.2 miWNW (290°)5.8 mphMostly Cloudy
7:00 PM77.0 °F73.4 °F89 %29.83 in6.2 miWNW (300°)3.5 mphMostly Cloudy
7:30 PM77.0 °F73.4 °F89 %29.83 in6.2 miWNW (290°)3.5 mphMostly Cloudy
8:00 PM77.0 °F73.0 °F85 %29.85 in6.0 miWSW (250°)4.6 mphHaze
8:00 PM77.0 °F73.4 °F89 %29.83 in6.2 miWSW (250°)4.6 mphMostly Cloudy
8:30 PM77.0 °F73.4 °F89 %29.86 in6.2 miWest (260°)2.3 mphMostly Cloudy
9:00 PM77.0 °F73.4 °F89 %29.86 in6.2 miWSW (250°)2.3 mphMostly Cloudy
9:30 PM77.0 °F73.4 °F89 %29.89 in6.2 miWNW (290°)1.2 mphMostly Cloudy
10:00 PM77.0 °F73.4 °F89 %29.89 in6.2 miSW (230°)2.3 mphMostly Cloudy
10:30 PM75.2 °F73.4 °F94 %29.89 in5.0 miSSW (200°)3.5 mphMostly Cloudy
11:00 PM75.0 °F74.0 °F94 %29.89 in4.0 miSouth (190°)2.3 mphHaze
11:00 PM75.2 °F73.4 °F94 %29.89 in4.3 miSouth (190°)2.3 mphMostly Cloudy
11:30 PM75.2 °F73.4 °F94 %29.89 in3.7 miSSW (210°)3.5 mphMostly Cloudy
Hourly data recorded from WBGG, located miles away from Kuching, Malaysia







STORIES FROM OUR PARTNERS